Year,Month,Day,Hour,Minute,Value (Times are PST for temperature in C)
2006,09,01,00,00,10.40
2006,09,01,00,01,10.40
2006,09,01,00,02,10.40
2006,09,01,00,03,10.40
2006,09,01,00,04,10.40
2006,09,01,00,05,10.40
2006,09,01,00,06,10.30
2006,09,01,00,07,10.30
2006,09,01,00,08,10.30
2006,09,01,00,09,10.30
2006,09,01,00,10,10.20
2006,09,01,00,11,10.20
2006,09,01,00,12,10.20
2006,09,01,00,13,10.20
2006,09,01,00,14,10.20
2006,09,01,00,15,10.20
2006,09,01,00,16,10.10
2006,09,01,00,17,10.10
2006,09,01,00,18,10.10
2006,09,01,00,19,10.10
2006,09,01,00,20,10.10
2006,09,01,00,21,10.10
2006,09,01,00,22,10.10
2006,09,01,00,23,10.10
2006,09,01,00,24,10.10
2006,09,01,00,25,10.10
2006,09,01,00,26,10.10
2006,09,01,00,27,10.00
2006,09,01,00,28,9.90
2006,09,01,00,29,9.90
2006,09,01,00,30,9.90
2006,09,01,00,31,9.90
2006,09,01,00,32,9.90
2006,09,01,00,33,9.90
2006,09,01,00,34,9.90
2006,09,01,00,35,9.90
2006,09,01,00,36,9.90
2006,09,01,00,37,9.90
2006,09,01,00,38,9.90
2006,09,01,00,39,9.90
2006,09,01,00,40,9.90
2006,09,01,00,41,9.90
2006,09,01,00,42,9.90
2006,09,01,00,43,9.90
2006,09,01,00,44,9.90
2006,09,01,00,45,9.80
2006,09,01,00,46,9.80
2006,09,01,00,47,9.80
2006,09,01,00,48,9.80
2006,09,01,00,49,9.80
2006,09,01,00,50,9.80
2006,09,01,00,51,9.80
2006,09,01,00,52,9.80
2006,09,01,00,53,9.80
2006,09,01,00,54,9.80
2006,09,01,00,55,9.80
2006,09,01,00,56,9.80
2006,09,01,00,57,9.80
2006,09,01,00,58,9.80
2006,09,01,00,59,9.80
2006,09,01,01,00,9.80
2006,09,01,01,01,9.80
2006,09,01,01,02,9.80
2006,09,01,01,03,9.70
2006,09,01,01,04,9.70
2006,09,01,01,05,9.70
2006,09,01,01,06,9.70
2006,09,01,01,07,9.70
2006,09,01,01,08,9.70
2006,09,01,01,09,9.70
2006,09,01,01,10,9.70
2006,09,01,01,11,9.70
2006,09,01,01,12,9.70
2006,09,01,01,13,9.70
2006,09,01,01,14,9.60
2006,09,01,01,15,9.60
2006,09,01,01,16,9.60
2006,09,01,01,17,9.60
2006,09,01,01,18,9.60
2006,09,01,01,19,9.60
2006,09,01,01,20,9.60
2006,09,01,01,21,9.50
2006,09,01,01,22,9.50
2006,09,01,01,23,9.50
2006,09,01,01,24,9.50
2006,09,01,01,25,9.50
2006,09,01,01,26,9.50
2006,09,01,01,27,9.50
2006,09,01,01,28,9.40
2006,09,01,01,29,9.40
2006,09,01,01,30,9.40
2006,09,01,01,31,9.40
2006,09,01,01,32,9.40
2006,09,01,01,33,9.40
2006,09,01,01,34,9.40
2006,09,01,01,35,9.40
2006,09,01,01,36,9.40
2006,09,01,01,37,9.40
2006,09,01,01,38,9.40
2006,09,01,01,39,9.30
2006,09,01,01,40,9.30
2006,09,01,01,41,9.30
2006,09,01,01,42,9.30
2006,09,01,01,43,9.30
2006,09,01,01,44,9.30
2006,09,01,01,45,9.30
2006,09,01,01,46,9.30
2006,09,01,01,47,9.30
2006,09,01,01,48,9.30
2006,09,01,01,49,9.30
2006,09,01,01,50,9.30
2006,09,01,01,51,9.30
2006,09,01,01,52,9.30
2006,09,01,01,53,9.30
2006,09,01,01,54,9.30
2006,09,01,01,55,9.30
2006,09,01,01,56,9.30
2006,09,01,01,57,9.30
2006,09,01,01,58,9.30
2006,09,01,01,59,9.30
2006,09,01,02,00,9.30
2006,09,01,02,01,9.30
2006,09,01,02,02,9.30
2006,09,01,02,03,9.30
2006,09,01,02,04,9.30
2006,09,01,02,05,9.30
2006,09,01,02,06,9.30
2006,09,01,02,07,9.30
2006,09,01,02,08,9.30
2006,09,01,02,09,9.30
2006,09,01,02,10,9.30
2006,09,01,02,11,9.30
2006,09,01,02,12,9.30
2006,09,01,02,13,9.20
2006,09,01,02,14,9.20
2006,09,01,02,15,9.20
2006,09,01,02,16,9.20
2006,09,01,02,17,9.20
2006,09,01,02,18,9.20
2006,09,01,02,19,9.20
2006,09,01,02,20,9.20
2006,09,01,02,21,9.20
2006,09,01,02,22,9.20
2006,09,01,02,23,9.20
2006,09,01,02,24,9.20
2006,09,01,02,25,9.20
2006,09,01,02,26,9.20
2006,09,01,02,27,9.20
2006,09,01,02,28,9.10
2006,09,01,02,29,9.10
2006,09,01,02,30,9.10
2006,09,01,02,31,9.10
2006,09,01,02,32,9.10
2006,09,01,02,33,9.10
2006,09,01,02,34,9.10
2006,09,01,02,35,9.10
2006,09,01,02,36,9.00
2006,09,01,02,37,9.00
2006,09,01,02,38,9.00
2006,09,01,02,39,9.00
2006,09,01,02,40,9.00
2006,09,01,02,41,9.00
2006,09,01,02,42,9.00
2006,09,01,02,43,9.00
2006,09,01,02,44,9.00
2006,09,01,02,45,9.00
2006,09,01,02,46,8.90
2006,09,01,02,47,8.90
2006,09,01,02,48,8.90
2006,09,01,02,49,8.90
2006,09,01,02,50,8.90
2006,09,01,02,51,8.90
2006,09,01,02,52,8.90
2006,09,01,02,53,8.90
2006,09,01,02,54,8.90
2006,09,01,02,55,8.90
2006,09,01,02,56,8.90
2006,09,01,02,57,8.90
2006,09,01,02,58,8.90
2006,09,01,02,59,8.90
2006,09,01,03,00,8.90
2006,09,01,03,01,8.90
2006,09,01,03,02,8.90
2006,09,01,03,03,8.90
2006,09,01,03,04,8.90
2006,09,01,03,05,8.90
2006,09,01,03,06,8.90
2006,09,01,03,07,8.90
2006,09,01,03,08,8.90
2006,09,01,03,09,8.90
2006,09,01,03,10,8.90
2006,09,01,03,11,8.90
2006,09,01,03,12,8.90
2006,09,01,03,13,8.90
2006,09,01,03,14,8.90
2006,09,01,03,15,8.90
2006,09,01,03,16,8.90
2006,09,01,03,17,8.90
2006,09,01,03,18,8.90
2006,09,01,03,19,8.90
2006,09,01,03,20,8.80
2006,09,01,03,21,8.80
2006,09,01,03,22,8.80
2006,09,01,03,23,8.80
2006,09,01,03,24,8.80
2006,09,01,03,25,8.80
2006,09,01,03,26,8.80
2006,09,01,03,27,8.80
2006,09,01,03,28,8.80
2006,09,01,03,29,8.80
2006,09,01,03,30,8.80
2006,09,01,03,31,8.80
2006,09,01,03,32,8.80
2006,09,01,03,33,8.80
2006,09,01,03,34,8.80
2006,09,01,03,35,8.80
2006,09,01,03,36,8.70
2006,09,01,03,37,8.70
2006,09,01,03,38,8.70
2006,09,01,03,39,8.70
2006,09,01,03,40,8.70
2006,09,01,03,41,8.70
2006,09,01,03,42,8.70
2006,09,01,03,43,8.70
2006,09,01,03,44,8.70
2006,09,01,03,45,8.70
2006,09,01,03,46,8.70
2006,09,01,03,47,8.70
2006,09,01,03,48,8.70
2006,09,01,03,49,8.70
2006,09,01,03,50,8.70
2006,09,01,03,51,8.70
2006,09,01,03,52,8.70
2006,09,01,03,53,8.70
2006,09,01,03,54,8.70
2006,09,01,03,55,8.70
2006,09,01,03,56,8.70
2006,09,01,03,57,8.70
2006,09,01,03,58,8.70
2006,09,01,03,59,8.70
2006,09,01,04,00,8.70
2006,09,01,04,01,8.70
2006,09,01,04,02,8.70
2006,09,01,04,03,8.70
2006,09,01,04,04,8.70
2006,09,01,04,05,8.70
2006,09,01,04,06,8.70
2006,09,01,04,07,8.70
2006,09,01,04,08,8.70
2006,09,01,04,09,8.70
2006,09,01,04,10,8.60
2006,09,01,04,11,8.60
2006,09,01,04,12,8.60
2006,09,01,04,13,8.60
2006,09,01,04,14,8.60
2006,09,01,04,15,8.60
2006,09,01,04,16,8.50
2006,09,01,04,17,8.50
2006,09,01,04,18,8.50
2006,09,01,04,19,8.50
2006,09,01,04,20,8.50
2006,09,01,04,21,8.50
2006,09,01,04,22,8.50
2006,09,01,04,23,8.50
2006,09,01,04,24,8.50
2006,09,01,04,25,8.50
2006,09,01,04,26,8.50
2006,09,01,04,27,8.50
2006,09,01,04,28,8.50
2006,09,01,04,29,8.50
2006,09,01,04,30,8.50
2006,09,01,04,31,8.50
2006,09,01,04,32,8.50
2006,09,01,04,33,8.50
2006,09,01,04,34,8.50
2006,09,01,04,35,8.50
2006,09,01,04,36,8.50
2006,09,01,04,37,8.50
2006,09,01,04,38,8.50
2006,09,01,04,39,8.50
2006,09,01,04,40,8.50
2006,09,01,04,41,8.50
2006,09,01,04,42,8.40
2006,09,01,04,43,8.40
2006,09,01,04,44,8.40
2006,09,01,04,45,8.40
2006,09,01,04,46,8.40
2006,09,01,04,47,8.40
2006,09,01,04,48,8.40
2006,09,01,04,49,8.40
2006,09,01,04,50,8.40
2006,09,01,04,51,8.40
2006,09,01,04,52,8.40
2006,09,01,04,53,8.40
2006,09,01,04,54,8.40
2006,09,01,04,55,8.40
2006,09,01,04,56,8.40
2006,09,01,04,57,8.50
2006,09,01,04,58,8.50
2006,09,01,04,59,8.50
2006,09,01,05,00,8.50
2006,09,01,05,01,8.60
2006,09,01,05,02,8.60
2006,09,01,05,03,8.60
2006,09,01,05,04,8.70
2006,09,01,05,05,8.70
2006,09,01,05,06,8.70
2006,09,01,05,07,8.70
2006,09,01,05,08,8.70
2006,09,01,05,09,8.70
2006,09,01,05,10,8.70
2006,09,01,05,11,8.70
2006,09,01,05,12,8.70
2006,09,01,05,13,8.70
2006,09,01,05,14,8.70
2006,09,01,05,15,8.70
2006,09,01,05,16,8.70
2006,09,01,05,17,8.70
2006,09,01,05,18,8.70
2006,09,01,05,19,8.70
2006,09,01,05,20,8.70
2006,09,01,05,21,8.70
2006,09,01,05,22,8.70
2006,09,01,05,23,8.70
2006,09,01,05,24,8.70
2006,09,01,05,25,8.70
2006,09,01,05,26,8.80
2006,09,01,05,27,8.80
2006,09,01,05,28,8.80
2006,09,01,05,29,8.80
2006,09,01,05,30,8.80
2006,09,01,05,31,8.90
2006,09,01,05,32,8.90
2006,09,01,05,33,8.90
2006,09,01,05,34,9.00
2006,09,01,05,35,9.00
2006,09,01,05,36,9.10
2006,09,01,05,37,9.20
2006,09,01,05,38,9.20
2006,09,01,05,39,9.30
2006,09,01,05,40,9.40
2006,09,01,05,41,9.50
2006,09,01,05,42,9.50
2006,09,01,05,43,9.60
2006,09,01,05,44,9.70
2006,09,01,05,45,9.70
2006,09,01,05,46,9.70
2006,09,01,05,47,9.80
2006,09,01,05,48,9.90
2006,09,01,05,49,9.90
2006,09,01,05,50,10.00
2006,09,01,05,51,10.10
2006,09,01,05,52,10.20
2006,09,01,05,53,10.30
2006,09,01,05,54,10.40
2006,09,01,05,55,10.50
2006,09,01,05,56,10.60
2006,09,01,05,57,10.70
2006,09,01,05,58,10.80
2006,09,01,05,59,10.90
2006,09,01,06,00,11.00
2006,09,01,06,01,11.10
2006,09,01,06,02,11.20
2006,09,01,06,03,11.30
2006,09,01,06,04,11.40
2006,09,01,06,05,11.40
2006,09,01,06,06,11.60
2006,09,01,06,07,11.60
2006,09,01,06,08,11.70
2006,09,01,06,09,11.70
2006,09,01,06,10,11.80
2006,09,01,06,11,11.80
2006,09,01,06,12,11.90
2006,09,01,06,13,11.90
2006,09,01,06,14,12.00
2006,09,01,06,15,12.00
2006,09,01,06,16,12.00
2006,09,01,06,17,12.00
2006,09,01,06,18,12.00
2006,09,01,06,19,12.10
2006,09,01,06,20,12.10
2006,09,01,06,21,12.20
2006,09,01,06,22,12.20
2006,09,01,06,23,12.10
2006,09,01,06,24,12.10
2006,09,01,06,25,12.10
2006,09,01,06,26,12.00
2006,09,01,06,27,12.00
2006,09,01,06,28,11.90
2006,09,01,06,29,11.80
2006,09,01,06,30,11.80
2006,09,01,06,31,11.70
2006,09,01,06,32,11.60
2006,09,01,06,33,11.60
2006,09,01,06,34,11.40
2006,09,01,06,35,11.40
2006,09,01,06,36,11.30
2006,09,01,06,37,11.20
2006,09,01,06,38,11.20
2006,09,01,06,39,11.10
2006,09,01,06,40,11.10
2006,09,01,06,41,11.10
2006,09,01,06,42,11.10
2006,09,01,06,43,11.00
2006,09,01,06,44,10.90
2006,09,01,06,45,10.90
2006,09,01,06,46,10.90
2006,09,01,06,47,10.80
2006,09,01,06,48,10.80
2006,09,01,06,49,10.80
2006,09,01,06,50,10.70
2006,09,01,06,51,10.70
2006,09,01,06,52,10.70
2006,09,01,06,53,10.60
2006,09,01,06,54,10.60
2006,09,01,06,55,10.60
2006,09,01,06,56,10.60
2006,09,01,06,57,10.60
2006,09,01,06,58,10.60
2006,09,01,06,59,10.50
2006,09,01,07,00,10.60
2006,09,01,07,01,10.60
2006,09,01,07,02,10.60
2006,09,01,07,03,10.70
2006,09,01,07,04,10.70
2006,09,01,07,05,10.80
2006,09,01,07,06,10.90
2006,09,01,07,07,10.90
2006,09,01,07,08,10.90
2006,09,01,07,09,10.90
2006,09,01,07,10,10.90
2006,09,01,07,11,10.90
2006,09,01,07,12,11.00
2006,09,01,07,13,11.10
2006,09,01,07,14,11.10
2006,09,01,07,15,11.10
2006,09,01,07,16,11.20
2006,09,01,07,17,11.20
2006,09,01,07,18,11.30
2006,09,01,07,19,11.30
2006,09,01,07,20,11.30
2006,09,01,07,21,11.40
2006,09,01,07,22,11.40
2006,09,01,07,23,11.40
2006,09,01,07,24,11.50
2006,09,01,07,25,11.60
2006,09,01,07,26,11.60
2006,09,01,07,27,11.70
2006,09,01,07,28,11.80
2006,09,01,07,29,11.90
2006,09,01,07,30,12.00
2006,09,01,07,31,12.20
2006,09,01,07,32,12.30
2006,09,01,07,33,12.50
2006,09,01,07,34,12.70
2006,09,01,07,35,12.90
2006,09,01,07,36,13.10
2006,09,01,07,37,13.20
2006,09,01,07,38,13.40
2006,09,01,07,39,13.50
2006,09,01,07,40,13.60
2006,09,01,07,41,13.70
2006,09,01,07,42,13.70
2006,09,01,07,43,13.80
2006,09,01,07,44,13.90
2006,09,01,07,45,14.00
2006,09,01,07,46,14.10
2006,09,01,07,47,14.20
2006,09,01,07,48,14.20
2006,09,01,07,49,14.30
2006,09,01,07,50,14.30
2006,09,01,07,51,14.40
2006,09,01,07,52,14.40
2006,09,01,07,53,14.50
2006,09,01,07,54,14.50
2006,09,01,07,55,14.50
2006,09,01,07,56,14.60
2006,09,01,07,57,14.70
2006,09,01,07,58,14.70
2006,09,01,07,59,14.80
2006,09,01,08,00,14.80
2006,09,01,08,01,14.80
2006,09,01,08,02,14.90
2006,09,01,08,03,15.00
2006,09,01,08,04,15.10
2006,09,01,08,05,15.20
2006,09,01,08,06,15.20
2006,09,01,08,07,15.30
2006,09,01,08,08,15.40
2006,09,01,08,09,15.40
2006,09,01,08,10,15.50
2006,09,01,08,11,15.60
2006,09,01,08,12,15.70
2006,09,01,08,13,15.70
2006,09,01,08,14,15.80
2006,09,01,08,15,15.80
2006,09,01,08,16,16.00
2006,09,01,08,17,16.10
2006,09,01,08,18,16.10
2006,09,01,08,19,16.20
2006,09,01,08,20,16.30
2006,09,01,08,21,16.30
2006,09,01,08,22,16.40
2006,09,01,08,23,16.40
2006,09,01,08,24,16.60
2006,09,01,08,25,16.60
2006,09,01,08,26,16.70
2006,09,01,08,27,16.70
2006,09,01,08,28,16.70
2006,09,01,08,29,16.80
2006,09,01,08,30,16.80
2006,09,01,08,31,16.90
2006,09,01,08,32,16.90
2006,09,01,08,33,17.00
2006,09,01,08,34,17.10
2006,09,01,08,35,17.10
2006,09,01,08,36,17.20
2006,09,01,08,37,17.30
2006,09,01,08,38,17.30
2006,09,01,08,39,17.30
2006,09,01,08,40,17.40
2006,09,01,08,41,17.50
2006,09,01,08,42,17.50
2006,09,01,08,43,17.60
2006,09,01,08,44,17.60
2006,09,01,08,45,17.70
2006,09,01,08,46,17.70
2006,09,01,08,47,17.70
2006,09,01,08,48,17.80
2006,09,01,08,49,17.80
2006,09,01,08,50,17.80
2006,09,01,08,51,17.90
2006,09,01,08,52,17.90
2006,09,01,08,53,17.90
2006,09,01,08,54,17.90
2006,09,01,08,55,17.90
2006,09,01,08,56,17.90
2006,09,01,08,57,17.90
2006,09,01,08,58,18.00
2006,09,01,08,59,18.10
2006,09,01,09,00,18.10
2006,09,01,09,01,18.20
2006,09,01,09,02,18.20
2006,09,01,09,03,18.30
2006,09,01,09,04,18.40
2006,09,01,09,05,18.40
2006,09,01,09,06,18.50
2006,09,01,09,07,18.50
2006,09,01,09,08,18.60
2006,09,01,09,09,18.60
2006,09,01,09,10,18.70
2006,09,01,09,11,18.70
2006,09,01,09,12,18.80
2006,09,01,09,13,18.80
2006,09,01,09,14,18.90
2006,09,01,09,15,19.00
2006,09,01,09,16,19.10
2006,09,01,09,17,19.10
2006,09,01,09,18,19.10
2006,09,01,09,19,19.20
2006,09,01,09,20,19.20
2006,09,01,09,21,19.30
2006,09,01,09,22,19.30
2006,09,01,09,23,19.40
2006,09,01,09,24,19.40
2006,09,01,09,25,19.50
2006,09,01,09,26,19.50
2006,09,01,09,27,19.60
2006,09,01,09,28,19.70
2006,09,01,09,29,19.80
2006,09,01,09,30,19.90
2006,09,01,09,31,20.00
2006,09,01,09,32,20.10
2006,09,01,09,33,20.20
2006,09,01,09,34,20.20
2006,09,01,09,35,20.10
2006,09,01,09,36,20.10
2006,09,01,09,37,20.10
2006,09,01,09,38,20.10
2006,09,01,09,39,20.10
2006,09,01,09,40,20.10
2006,09,01,09,41,20.10
2006,09,01,09,42,20.00
2006,09,01,09,43,19.90
2006,09,01,09,44,19.90
2006,09,01,09,45,19.90
2006,09,01,09,46,19.90
2006,09,01,09,47,19.90
2006,09,01,09,48,20.00
2006,09,01,09,49,20.10
2006,09,01,09,50,20.10
2006,09,01,09,51,20.10
2006,09,01,09,52,20.10
2006,09,01,09,53,20.10
2006,09,01,09,54,20.10
2006,09,01,09,55,20.10
2006,09,01,09,56,20.10
2006,09,01,09,57,20.10
2006,09,01,09,58,20.00
2006,09,01,09,59,19.90
2006,09,01,10,00,20.00
2006,09,01,10,01,20.10
2006,09,01,10,02,20.20
2006,09,01,10,03,20.20
2006,09,01,10,04,20.30
2006,09,01,10,05,20.40
2006,09,01,10,06,20.40
2006,09,01,10,07,20.40
2006,09,01,10,08,20.40
2006,09,01,10,09,20.40
2006,09,01,10,10,20.40
2006,09,01,10,11,20.40
2006,09,01,10,12,20.50
2006,09,01,10,13,20.50
2006,09,01,10,14,20.60
2006,09,01,10,15,20.70
2006,09,01,10,16,20.70
2006,09,01,10,17,20.60
2006,09,01,10,18,20.60
2006,09,01,10,19,20.60
2006,09,01,10,20,20.70
2006,09,01,10,21,20.70
2006,09,01,10,22,20.80
2006,09,01,10,23,20.80
2006,09,01,10,24,20.80
2006,09,01,10,25,20.90
2006,09,01,10,26,20.90
2006,09,01,10,27,20.80
2006,09,01,10,28,20.80
2006,09,01,10,29,20.70
2006,09,01,10,30,20.60
2006,09,01,10,31,20.60
2006,09,01,10,32,20.60
2006,09,01,10,33,20.70
2006,09,01,10,34,20.80
2006,09,01,10,35,20.80
2006,09,01,10,36,20.80
2006,09,01,10,37,20.80
2006,09,01,10,38,20.80
2006,09,01,10,39,20.80
2006,09,01,10,40,20.70
2006,09,01,10,41,20.70
2006,09,01,10,42,20.70
2006,09,01,10,43,20.70
2006,09,01,10,44,20.70
2006,09,01,10,45,20.80
2006,09,01,10,46,20.80
2006,09,01,10,47,20.90
2006,09,01,10,48,21.00
2006,09,01,10,49,21.00
2006,09,01,10,50,21.10
2006,09,01,10,51,21.20
2006,09,01,10,52,21.30
2006,09,01,10,53,21.30
2006,09,01,10,54,21.40
2006,09,01,10,55,21.40
2006,09,01,10,56,21.50
2006,09,01,10,57,21.60
2006,09,01,10,58,21.60
2006,09,01,10,59,21.70
2006,09,01,11,00,21.70
2006,09,01,11,01,21.60
2006,09,01,11,02,21.60
2006,09,01,11,03,21.60
2006,09,01,11,04,21.60
2006,09,01,11,05,21.60
2006,09,01,11,06,21.60
2006,09,01,11,07,21.60
2006,09,01,11,08,21.60
2006,09,01,11,09,21.60
2006,09,01,11,10,21.60
2006,09,01,11,11,21.60
2006,09,01,11,12,21.70
2006,09,01,11,13,21.80
2006,09,01,11,14,22.00
2006,09,01,11,15,22.00
2006,09,01,11,16,22.00
2006,09,01,11,17,22.00
2006,09,01,11,18,22.10
2006,09,01,11,19,22.20
2006,09,01,11,20,22.30
2006,09,01,11,21,22.30
2006,09,01,11,22,22.40
2006,09,01,11,23,22.60
2006,09,01,11,24,22.60
2006,09,01,11,25,22.70
2006,09,01,11,26,22.90
2006,09,01,11,27,22.90
2006,09,01,11,28,22.90
2006,09,01,11,29,22.90
2006,09,01,11,30,22.90
2006,09,01,11,31,22.80
2006,09,01,11,32,22.60
2006,09,01,11,33,22.40
2006,09,01,11,34,22.30
2006,09,01,11,35,22.20
2006,09,01,11,36,22.20
2006,09,01,11,37,22.20
2006,09,01,11,38,22.10
2006,09,01,11,39,22.10
2006,09,01,11,40,22.00
2006,09,01,11,41,22.00
2006,09,01,11,42,22.10
2006,09,01,11,43,22.20
2006,09,01,11,44,22.20
2006,09,01,11,45,22.20
2006,09,01,11,46,22.20
2006,09,01,11,47,22.20
2006,09,01,11,48,22.20
2006,09,01,11,49,22.20
2006,09,01,11,50,22.20
2006,09,01,11,51,22.20
2006,09,01,11,52,22.20
2006,09,01,11,53,22.20
2006,09,01,11,54,22.20
2006,09,01,11,55,22.30
2006,09,01,11,56,22.30
2006,09,01,11,57,22.30
2006,09,01,11,58,22.40
2006,09,01,11,59,22.50
2006,09,01,12,00,22.50
2006,09,01,12,01,22.50
2006,09,01,12,02,22.50
2006,09,01,12,03,22.30
2006,09,01,12,04,22.10
2006,09,01,12,05,22.00
2006,09,01,12,06,22.00
2006,09,01,12,07,22.10
2006,09,01,12,08,22.00
2006,09,01,12,09,22.00
2006,09,01,12,10,22.10
2006,09,01,12,11,22.30
2006,09,01,12,12,22.40
2006,09,01,12,13,22.60
2006,09,01,12,14,22.60
2006,09,01,12,15,22.70
2006,09,01,12,16,22.80
2006,09,01,12,17,22.90
2006,09,01,12,18,23.00
2006,09,01,12,19,23.00
2006,09,01,12,20,22.80
2006,09,01,12,21,22.80
2006,09,01,12,22,22.70
2006,09,01,12,23,22.70
2006,09,01,12,24,22.80
2006,09,01,12,25,22.90
2006,09,01,12,26,23.00
2006,09,01,12,27,23.10
2006,09,01,12,28,23.10
2006,09,01,12,29,23.00
2006,09,01,12,30,22.90
2006,09,01,12,31,22.90
2006,09,01,12,32,23.10
2006,09,01,12,33,23.10
2006,09,01,12,34,23.10
2006,09,01,12,35,23.20
2006,09,01,12,36,23.20
2006,09,01,12,37,23.20
2006,09,01,12,38,23.20
2006,09,01,12,39,23.20
2006,09,01,12,40,23.20
2006,09,01,12,41,23.30
2006,09,01,12,42,23.30
2006,09,01,12,43,23.40
2006,09,01,12,44,23.40
2006,09,01,12,45,23.50
2006,09,01,12,46,23.60
2006,09,01,12,47,23.70
2006,09,01,12,48,23.70
2006,09,01,12,49,23.70
2006,09,01,12,50,23.60
2006,09,01,12,51,23.50
2006,09,01,12,52,23.40
2006,09,01,12,53,23.50
2006,09,01,12,54,23.60
2006,09,01,12,55,23.60
2006,09,01,12,56,23.70
2006,09,01,12,57,23.60
2006,09,01,12,58,23.60
2006,09,01,12,59,23.60
2006,09,01,13,00,23.60
2006,09,01,13,01,23.60
2006,09,01,13,02,23.70
2006,09,01,13,03,23.70
2006,09,01,13,04,23.70
2006,09,01,13,05,23.70
2006,09,01,13,06,23.80
2006,09,01,13,07,23.90
2006,09,01,13,08,23.90
2006,09,01,13,09,24.00
2006,09,01,13,10,24.10
2006,09,01,13,11,24.10
2006,09,01,13,12,24.10
2006,09,01,13,13,24.20
2006,09,01,13,14,24.30
2006,09,01,13,15,24.40
2006,09,01,13,16,24.50
2006,09,01,13,17,24.60
2006,09,01,13,18,24.60
2006,09,01,13,19,24.70
2006,09,01,13,20,24.80
2006,09,01,13,21,24.90
2006,09,01,13,22,24.90
2006,09,01,13,23,25.00
2006,09,01,13,24,25.10
2006,09,01,13,25,25.20
2006,09,01,13,26,25.30
2006,09,01,13,27,25.30
2006,09,01,13,28,25.30
2006,09,01,13,29,25.20
2006,09,01,13,30,25.10
2006,09,01,13,31,25.10
2006,09,01,13,32,25.10
2006,09,01,13,33,25.00
2006,09,01,13,34,25.10
2006,09,01,13,35,25.20
2006,09,01,13,36,25.20
2006,09,01,13,37,25.30
2006,09,01,13,38,25.30
2006,09,01,13,39,25.40
2006,09,01,13,40,25.40
2006,09,01,13,41,25.30
2006,09,01,13,42,25.30
2006,09,01,13,43,25.40
2006,09,01,13,44,25.40
2006,09,01,13,45,25.40
2006,09,01,13,46,25.40
2006,09,01,13,47,25.40
2006,09,01,13,48,25.40
2006,09,01,13,49,25.40
2006,09,01,13,50,25.40
2006,09,01,13,51,25.50
2006,09,01,13,52,25.60
2006,09,01,13,53,25.60
2006,09,01,13,54,25.70
2006,09,01,13,55,25.70
2006,09,01,13,56,25.60
2006,09,01,13,57,25.50
2006,09,01,13,58,25.50
2006,09,01,13,59,25.50
2006,09,01,14,00,25.50
2006,09,01,14,01,25.40
2006,09,01,14,02,25.40
2006,09,01,14,03,25.30
2006,09,01,14,04,25.20
2006,09,01,14,05,25.20
2006,09,01,14,06,25.30
2006,09,01,14,07,25.20
2006,09,01,14,08,25.30
2006,09,01,14,09,25.30
2006,09,01,14,10,25.40
2006,09,01,14,11,25.40
2006,09,01,14,12,25.50
2006,09,01,14,13,25.50
2006,09,01,14,14,25.60
2006,09,01,14,15,25.60
2006,09,01,14,16,25.60
2006,09,01,14,17,25.70
2006,09,01,14,18,25.80
2006,09,01,14,19,25.80
2006,09,01,14,20,25.80
2006,09,01,14,21,25.80
2006,09,01,14,22,25.80
2006,09,01,14,23,25.80
2006,09,01,14,24,25.90
2006,09,01,14,25,26.00
2006,09,01,14,26,26.10
2006,09,01,14,27,26.30
2006,09,01,14,28,26.40
2006,09,01,14,29,26.40
2006,09,01,14,30,26.40
2006,09,01,14,31,26.50
2006,09,01,14,32,26.60
2006,09,01,14,33,26.40
2006,09,01,14,34,26.40
2006,09,01,14,35,26.20
2006,09,01,14,36,26.10
2006,09,01,14,37,25.90
2006,09,01,14,38,25.90
2006,09,01,14,39,25.90
2006,09,01,14,40,26.00
2006,09,01,14,41,26.10
2006,09,01,14,42,26.20
2006,09,01,14,43,26.20
2006,09,01,14,44,26.20
2006,09,01,14,45,26.20
2006,09,01,14,46,26.30
2006,09,01,14,47,26.40
2006,09,01,14,48,26.40
2006,09,01,14,49,26.40
2006,09,01,14,50,26.40
2006,09,01,14,51,26.40
2006,09,01,14,52,26.50
2006,09,01,14,53,26.60
2006,09,01,14,54,26.60
2006,09,01,14,55,26.60
2006,09,01,14,56,26.70
2006,09,01,14,57,26.80
2006,09,01,14,58,26.90
2006,09,01,14,59,27.00
2006,09,01,15,00,27.10
2006,09,01,15,01,27.10
2006,09,01,15,02,27.10
2006,09,01,15,03,27.00
2006,09,01,15,04,26.90
2006,09,01,15,05,26.90
2006,09,01,15,06,26.90
2006,09,01,15,07,26.80
2006,09,01,15,08,26.80
2006,09,01,15,09,26.80
2006,09,01,15,10,26.80
2006,09,01,15,11,26.80
2006,09,01,15,12,26.90
2006,09,01,15,13,26.90
2006,09,01,15,14,26.90
2006,09,01,15,15,26.80
2006,09,01,15,16,26.80
2006,09,01,15,17,26.80
2006,09,01,15,18,26.70
2006,09,01,15,19,26.60
2006,09,01,15,20,26.70
2006,09,01,15,21,26.70
2006,09,01,15,22,26.70
2006,09,01,15,23,26.70
2006,09,01,15,24,26.70
2006,09,01,15,25,26.70
2006,09,01,15,26,26.70
2006,09,01,15,27,26.80
2006,09,01,15,28,26.90
2006,09,01,15,29,27.10
2006,09,01,15,30,27.20
2006,09,01,15,31,27.30
2006,09,01,15,32,27.40
2006,09,01,15,33,27.40
2006,09,01,15,34,27.40
2006,09,01,15,35,27.40
2006,09,01,15,36,27.40
2006,09,01,15,37,27.40
2006,09,01,15,38,27.30
2006,09,01,15,39,27.20
2006,09,01,15,40,27.10
2006,09,01,15,41,27.10
2006,09,01,15,42,27.10
2006,09,01,15,43,27.10
2006,09,01,15,44,27.20
2006,09,01,15,45,27.20
2006,09,01,15,46,27.20
2006,09,01,15,47,27.30
2006,09,01,15,48,27.30
2006,09,01,15,49,27.30
2006,09,01,15,50,27.30
2006,09,01,15,51,27.30
2006,09,01,15,52,27.30
2006,09,01,15,53,27.30
2006,09,01,15,54,27.30
2006,09,01,15,55,27.30
2006,09,01,15,56,27.30
2006,09,01,15,57,27.30
2006,09,01,15,58,27.40
2006,09,01,15,59,27.40
2006,09,01,16,00,27.40
2006,09,01,16,01,27.60
2006,09,01,16,02,27.60
2006,09,01,16,03,27.60
2006,09,01,16,04,27.70
2006,09,01,16,05,27.70
2006,09,01,16,06,27.70
2006,09,01,16,07,27.70
2006,09,01,16,08,27.70
2006,09,01,16,09,27.60
2006,09,01,16,10,27.50
2006,09,01,16,11,27.40
2006,09,01,16,12,27.40
2006,09,01,16,13,27.40
2006,09,01,16,14,27.30
2006,09,01,16,15,27.30
2006,09,01,16,16,27.40
2006,09,01,16,17,27.30
2006,09,01,16,18,27.30
2006,09,01,16,19,27.30
2006,09,01,16,20,27.30
2006,09,01,16,21,27.30
2006,09,01,16,22,27.30
2006,09,01,16,23,27.30
2006,09,01,16,24,27.30
2006,09,01,16,25,27.30
2006,09,01,16,26,27.40
2006,09,01,16,27,27.50
2006,09,01,16,28,27.50
2006,09,01,16,29,27.40
2006,09,01,16,30,27.40
2006,09,01,16,31,27.30
2006,09,01,16,32,27.30
2006,09,01,16,33,27.30
2006,09,01,16,34,27.30
2006,09,01,16,35,27.30
2006,09,01,16,36,27.30
2006,09,01,16,37,27.30
2006,09,01,16,38,27.30
2006,09,01,16,39,27.30
2006,09,01,16,40,27.30
2006,09,01,16,41,27.30
2006,09,01,16,42,27.30
2006,09,01,16,43,27.40
2006,09,01,16,44,27.40
2006,09,01,16,45,27.50
2006,09,01,16,46,27.60
2006,09,01,16,47,27.60
2006,09,01,16,48,27.60
2006,09,01,16,49,27.60
2006,09,01,16,50,27.40
2006,09,01,16,51,27.40
2006,09,01,16,52,27.40
2006,09,01,16,53,27.40
2006,09,01,16,54,27.50
2006,09,01,16,55,27.60
2006,09,01,16,56,27.70
2006,09,01,16,57,27.70
2006,09,01,16,58,27.70
2006,09,01,16,59,27.70
2006,09,01,17,00,27.70
2006,09,01,17,01,27.60
2006,09,01,17,02,27.60
2006,09,01,17,03,27.60
2006,09,01,17,04,27.60
2006,09,01,17,05,27.60
2006,09,01,17,06,27.50
2006,09,01,17,07,27.40
2006,09,01,17,08,27.40
2006,09,01,17,09,27.40
2006,09,01,17,10,27.40
2006,09,01,17,11,27.30
2006,09,01,17,12,27.30
2006,09,01,17,13,27.30
2006,09,01,17,14,27.30
2006,09,01,17,15,27.30
2006,09,01,17,16,27.30
2006,09,01,17,17,27.30
2006,09,01,17,18,27.30
2006,09,01,17,19,27.30
2006,09,01,17,20,27.40
2006,09,01,17,21,27.40
2006,09,01,17,22,27.40
2006,09,01,17,23,27.30
2006,09,01,17,24,27.30
2006,09,01,17,25,27.20
2006,09,01,17,26,27.20
2006,09,01,17,27,27.10
2006,09,01,17,28,27.10
2006,09,01,17,29,27.10
2006,09,01,17,30,27.10
2006,09,01,17,31,27.10
2006,09,01,17,32,27.10
2006,09,01,17,33,27.10